Tracking 19854 objects as of 24-Sep-2019
HD Live streaming from Space Station
objects crossing your sky now

DMSP 5D-2 F11 DEB

Track DMSP 5D-2 F11 DEB now!
10-day predictions


NORAD ID: 28310
Int'l Code: 1991-082X
Perigee: 765.0 km
Apogee: 781.7 km
Inclination: 98.7 °
Period: 100.2 minutes
Semi major axis: 7144 km
RCS: 0.0074 m2 (small)
Launch date: November 28, 1991
Source: United States (US)
Launch site: AIR FORCE WESTERN TEST RANGE (AFWTR)

Note: This is SATELLITE DEBRIS
aabbcc
Your satellite tracking list
Your tracking list is empty




NASA's NSSDC Master Catalog

Two Line Element Set (TLE):
1 28310U 91082X   19266.34434293 +.00000789 +00000-0 +27755-3 0  9993
2 28310 098.6623 307.9180 0011652 150.9452 268.7437 14.37668695802629
Source of the keplerian elements: AFSPC